Terug naar catalogus

STARLINK-37812

ActiefCommunicatieVLEO
NORAD 100293·PAYLOAD·🇺🇸 United States

Gelanceerd Aug 11, 2026 vanaf Cape Canaveral Space Force Station

Loading…

Volgende Passages (komende 24 uur)

TLE

VerouderdSource: Space-Track

Epoch: Sep 8, 2026, 21:29 UTC

1 A0293U 26183X   26251.89539494  .00312711  00000-0  19848-2 0  9998
2 A0293  53.1587 314.3924 0003899 358.7086   1.3923 15.75059437  4487

Volg STARLINK-37812 in realtime met AllMySat

Download on the App Store